Regional Weather Roundup
Issued by NWS

Home | Current Version | Previous Version | Graphics & Text | Print | Product List | Glossary On
Versions: 1 2 3 4 5 6 7 8 9 10 11 12 13 14 15 16 17 18 19 20 21 22 23 24 25 26 27 28 29 30 31 32 33 34 35 36 37 38 39 40 41 42 43 44 45 46 47 48 49 50
000
ASUS43 KLMK 251610
RWRKY
KENTUCKY REGIONAL WEATHER ROUNDUP
NATIONAL WEATHER SERVICE LOUISVILLE KY
1100 AM EST TUE NOV 25 2014

NOTE "FAIR" INDICATES FEW OR NO CLOUDS BELOW 12,000 FEET
WITH NO SIGNIFICANT WEATHER AND/OR OBSTRUCTIONS TO VISIBILITY.

KYZ001>023-026-027-061>063-070>075-251700-
WESTERN AND SOUTH CENTRAL KENTUCKY

CITY           SKY/WX    TMP DP  RH WIND       PRES   REMARKS
PADUCAH        SUNNY     41  25  53 NW8       30.22R
HENDERSON      SUNNY     37  27  65 W12       30.20R WCI  30
OWENSBORO      SUNNY     40  28  62 SW14      30.20R WCI  32
HOPKINSVILLE   SUNNY     41  26  53 NW9       30.20R
BOWLING GREEN  SUNNY     43  27  53 W8        30.18S
GLASGOW        SUNNY     42  30  62 W3        30.17R
$$

KYZ024-025-028>034-038-045-046-053-251700-
NORTH CENTRAL KENTUCKY

CITY           SKY/WX    TMP DP  RH WIND       PRES   REMARKS
LOUISVILLE/SDF MOSUNNY   41  25  53 W9        30.16R
LOUISVILLE/LOU SUNNY     40  24  53 W14       30.16R WCI  32
FORT KNOX      SUNNY     39  26  58 W10       30.15R WCI  32
$$

KYZ035>037-039>044-047>052-055>060-089>105-251700-
NORTHEAST KENTUCKY

CITY           SKY/WX    TMP DP  RH WIND       PRES   REMARKS
LEXINGTON      SUNNY     42  31  64 W9        30.13R
COVINGTON      MOSUNNY   41  28  60 W12G18    30.10R
FRANKFORT      SUNNY     43  30  60 SW14      30.13R
$$

KYZ054-064>069-076>088-106>120-251700-
SOUTHEAST KENTUCKY

CITY           SKY/WX    TMP DP  RH WIND       PRES   REMARKS
JACKSON        SUNNY     49  29  46 VRB3      30.11R
LONDON         SUNNY     49  28  44 SW9       30.13R
SOMERSET       SUNNY     46  32  57 SW6       30.15R
MIDDLESBORO    SUNNY     50  32  50 S7        30.14R
MONTICELLO     SUNNY     49  33  54 SW8       30.17R
$$



USA.gov is the U.S. government's official web portal to all federal, state and local government web resources and services.